Dothan, AL

7:36 AM CDT on May 27, 2017 (GMT -0500)
Dothan Regional

Weather History for KDHN - November, 2013

Change the Weather History Date:

Saturday, November 9, 2013

  Actual Average Record
Temperature  
Mean Temperature 58 °F 60 °F  
Max Temperature 72 °F 73 °F 84 °F (1945)
Min Temperature 43 °F 48 °F 30 °F (1951)
Degree Days  
Heating Degree Days 7 6  
Month to date heating degree days 46 45  
Since 1 July heating degree days 87 104  
Growing Degree Days 7 (Base 50)    
Moisture  
Dew Point 45 °F    
Average Humidity 66    
Maximum Humidity 90    
Minimum Humidity 47    
Precipitation  
Precipitation 0.00 in 0.12 in 0.61 in (1968)
Month to date precipitation 0.68 0.86  
Year to date precipitation 67.51 46.25  
Sea Level Pressure  
Sea Level Pressure 30.27 in    
Wind  
Wind Speed 5 mph (ENE)    
Max Wind Speed 10 mph    
Max Gust Speed 17 mph    
Visibility 10 miles    
Events      
T = Trace of Precipitation, MM = Missing Value Source: NWS Daily Summary

Daily Weather History Graph

Daily Weather History Graph

Search for Another Location

Airport or City:

Trip Planner

Search our weather history database for the weather conditions in past years. The results will help you decide how hot, cold, wet, or windy it might be!

Date:

Astronomy

Nov. 09, 2013 Rise Set
Actual Time 6:04 AM CST 4:46 PM CST
Civil Twilight 5:38 AM CST 5:12 PM CST
Nautical Twilight 5:09 AM CST 5:41 PM CST
Astronomical Twilight 4:41 AM CST 6:09 PM CST
Moon 11:44 AM CST (11/9) 11:10 PM CST (11/9)
Length of Visible Light 11h 33m
Length of Day
10h 42m
Waxing Crescent, 44% of the Moon is Illuminated
Nov 9
Waxing Crescent
Nov 9
First Quarter
Nov 17
Full
Nov 25
Last Quarter
Dec 2
New

Hourly Weather History & Observations

Time (CST) Temp. Windchill Dew Point Humidity Pressure Visibility Wind Dir Wind Speed Gust Speed Precip Events Conditions
12:53 AM 48.0 °F - 36.0 °F 63% 30.27 in 10.0 mi NE 4.6 mph - N/A   Clear
1:53 AM 48.0 °F - 37.0 °F 66% 30.27 in 10.0 mi ENE 3.5 mph - N/A   Clear
2:53 AM 46.9 °F - 37.9 °F 71% 30.27 in 10.0 mi NE 4.6 mph - N/A   Clear
3:53 AM 44.1 °F 42.5 °F 37.9 °F 79% 30.27 in 10.0 mi NE 3.5 mph - N/A   Clear
4:53 AM 45.0 °F 41.8 °F 37.9 °F 76% 30.27 in 10.0 mi East 5.8 mph - N/A   Clear
5:53 AM 46.9 °F - 36.0 °F 66% 30.29 in 10.0 mi ENE 5.8 mph - N/A   Scattered Clouds
6:53 AM 48.9 °F - 35.1 °F 59% 30.31 in 10.0 mi ENE 6.9 mph - N/A   Clear
7:53 AM 54.0 °F - 37.0 °F 53% 30.32 in 10.0 mi East 9.2 mph - N/A   Clear
8:53 AM 57.9 °F - 39.9 °F 51% 30.32 in 10.0 mi ENE 10.4 mph 17.3 mph N/A   Mostly Cloudy
9:53 AM 62.1 °F - 43.0 °F 50% 30.31 in 10.0 mi East 8.1 mph - N/A   Partly Cloudy
10:53 AM 66.9 °F - 46.0 °F 47% 30.29 in 10.0 mi East 6.9 mph - N/A   Scattered Clouds
11:53 AM 66.9 °F - 48.0 °F 51% 30.27 in 10.0 mi ENE 5.8 mph - N/A   Mostly Cloudy
12:53 PM 68.0 °F - 48.9 °F 50% 30.25 in 10.0 mi Calm Calm - N/A   Mostly Cloudy
1:53 PM 70.0 °F - 50.0 °F 49% 30.24 in 10.0 mi NE 5.8 mph - N/A   Overcast
2:53 PM 70.0 °F - 50.0 °F 49% 30.22 in 10.0 mi NE 8.1 mph - N/A   Clear
3:53 PM 66.9 °F - 51.1 °F 57% 30.24 in 10.0 mi East 3.5 mph - N/A   Clear
4:53 PM 64.0 °F - 52.0 °F 65% 30.24 in 10.0 mi East 3.5 mph - N/A   Clear
5:53 PM 60.1 °F - 53.1 °F 78% 30.25 in 10.0 mi NNE 3.5 mph - N/A   Mostly Cloudy
6:53 PM 57.9 °F - 53.1 °F 84% 30.25 in 10.0 mi NE 3.5 mph - N/A   Clear
7:53 PM 57.9 °F - 53.1 °F 84% 30.26 in 10.0 mi NNE 4.6 mph - N/A   Clear
8:53 PM 57.9 °F - 52.0 °F 81% 30.26 in 10.0 mi NNE 5.8 mph - N/A   Clear
9:53 PM 57.0 °F - 52.0 °F 83% 30.26 in 10.0 mi NNE 3.5 mph - N/A   Clear
10:53 PM 55.9 °F - 52.0 °F 87% 30.25 in 10.0 mi Calm Calm - N/A   Mostly Cloudy
11:53 PM 54.0 °F - 51.1 °F 90% 30.25 in 10.0 mi North 4.6 mph - N/A   Partly Cloudy